GW0772 Weather Reports


Display with metric or nautical units.
time (UTC)temp
F
wind
direction
speed
MPH
gust
MPH
rain 1hr
in
rain 24hr
in
rain mn
in
humidity
%
barometer
mb
20260906131705 79 358 2.0 3.0 0.00 0.00 0.00 89 1013.3
20260906131204 79 325 2.0 5.0 0.00 0.00 0.00 89 1013.2
20260906130704 78 54 1.0 3.0 0.00 0.00 0.00 89 1013.2
20260906130205 78 60 3.0 6.0 0.00 0.00 0.00 90 1013.2
20260906125704 78 50 1.0 3.0 0.00 0.00 0.00 90 1013.2
20260906125204 78 39 3.0 5.0 0.00 0.00 0.00 90 1013.2
20260906124705 78 55 1.0 5.0 0.00 0.00 0.00 91 1013.1
20260906124204 77 34 2.0 3.0 0.00 0.00 0.00 91 1013.1
20260906123704 77 51 0.0 3.0 0.00 0.00 0.00 92 1013.1
20260906123204 77 350 1.0 2.0 0.00 0.00 0.00 92 1013.1
20260906122704 77 344 1.0 2.0 0.00 0.00 0.00 92 1013.0
20260906122204 77 55 1.0 3.0 0.00 0.00 0.00 93 1013.1
20260906121704 76 55 1.0 3.0 0.00 0.00 0.00 93 1012.9
20260906120204 76 48 1.0 2.0 0.00 0.00 0.00 94 1012.8
20260906115704 76 48 1.0 2.0 0.00 0.00 0.00 94 1012.6
20260906115205 76 48 0.0 2.0 0.00 0.00 0.00 94 1012.6
20260906114704 76 48 0.0 1.0 0.00 0.00 0.00 94 1012.5
20260906114204 76 48 1.0 2.0 0.00 0.00 0.00 93 1012.5
20260906113705 76 48 0.0 0.0 0.00 0.00 0.00 93 1012.4
20260906112704 76 48 0.0 0.0 0.00 0.00 0.00 93 1012.2
20260906112204 76 48 0.0 0.0 0.00 0.00 0.00 93 1012.2
20260906111704 76 48 0.0 0.0 0.00 0.00 0.00 93 1012.2
20260906111204 76 48 0.0 1.0 0.00 0.00 0.00 93 1012.1
20260906110704 76 48 0.0 1.0 0.00 0.00 0.00 93 1012.0
20260906110204 76 48 0.0 1.0 0.00 0.00 0.00 93 1012.0
20260906105704 76 48 0.0 1.0 0.00 0.00 0.00 93 1012.0
20260906105204 76 48 1.0 2.0 0.00 0.00 0.00 93 1012.0
20260906104704 76 67 0.0 2.0 0.00 0.00 0.00 93 1012.0
20260906104204 76 56 1.0 3.0 0.00 0.00 0.00 93 1011.9
20260906103704 76 34 0.0 1.0 0.00 0.00 0.00 93 1012.0
20260906103204 76 34 1.0 2.0 0.00 0.00 0.00 92 1011.8
20260906102704 76 34 0.0 1.0 0.00 0.00 0.00 92 1011.8
20260906102205 76 34 1.0 1.0 0.00 0.00 0.00 92 1011.7
20260906101204 76 34 1.0 1.0 0.00 0.00 0.00 91 1011.6
20260906100704 76 34 1.0 2.0 0.00 0.00 0.00 91 1011.5
20260906100204 76 34 1.0 1.0 0.00 0.00 0.00 91 1011.4
20260906095704 76 34 0.0 1.0 0.00 0.00 0.00 90 1011.3
20260906095204 76 34 0.0 1.0 0.00 0.00 0.00 90 1011.3
20260906094704 76 34 0.0 1.0 0.00 0.00 0.00 89 1011.2
20260906094204 76 34 0.0 1.0 0.00 0.00 0.00 90 1011.2
20260906093204 76 34 1.0 2.0 0.00 0.00 0.00 89 1011.1
20260906092704 76 34 0.0 2.0 0.00 0.00 0.00 89 1011.1
20260906092204 76 34 1.0 2.0 0.00 0.00 0.00 89 1011.1
20260906091704 76 34 1.0 2.0 0.00 0.00 0.00 88 1011.0
20260906090704 77 34 1.0 1.0 0.00 0.00 0.00 88 1010.9
20260906090204 77 34 0.0 1.0 0.00 0.00 0.00 88 1010.9
20260906085704 77 34 0.0 1.0 0.00 0.00 0.00 87 1010.9
20260906085204 77 34 1.0 1.0 0.00 0.00 0.00 87 1010.9
20260906084704 77 34 0.0 1.0 0.00 0.00 0.00 87 1010.9
20260906084204 77 34 0.0 1.0 0.00 0.00 0.00 86 1011.0
20260906083704 77 34 0.0 0.0 0.00 0.00 0.00 86 1011.0
20260906083204 78 34 0.0 1.0 0.00 0.00 0.00 86 1010.9
20260906082704 78 34 0.0 0.0 0.00 0.00 0.00 86 1010.9
20260906082204 78 34 0.0 1.0 0.00 0.00 0.00 85 1010.9
20260906081704 78 34 0.0 0.0 0.00 0.00 0.00 85 1010.9
20260906081205 78 34 0.0 1.0 0.00 0.00 0.00 85 1010.9
20260906080704 78 34 0.0 0.0 0.00 0.00 0.00 84 1010.9
20260906080204 78 34 0.0 0.0 0.00 0.00 0.00 84 1010.8
20260906075704 78 34 0.0 0.0 0.00 0.00 0.00 84 1010.8
20260906075204 78 34 0.0 1.0 0.00 0.00 0.00 83 1010.8
20260906074704 78 34 1.0 2.0 0.00 0.00 0.00 83 1010.8
20260906074204 78 34 1.0 3.0 0.00 0.00 0.00 84 1010.8
20260906073704 77 61 1.0 3.0 0.00 0.00 0.00 84 1011.0
20260906073204 77 51 2.0 3.0 0.00 0.00 0.00 85 1010.9
20260906072704 76 64 1.0 2.0 0.00 0.00 0.00 87 1010.9
20260906072204 76 46 1.0 2.0 0.00 0.00 0.00 87 1011.0
20260906071704 76 357 0.0 1.0 0.00 0.00 0.00 88 1011.1
20260906071204 76 355 0.0 1.0 0.00 0.00 0.00 89 1011.1
20260906070704 76 355 0.0 1.0 0.00 0.00 0.00 89 1011.1
20260906070204 76 355 0.0 0.0 0.00 0.00 0.00 89 1011.1
20260906065704 76 355 0.0 0.0 0.00 0.00 0.00 89 1011.2
20260906065204 76 355 0.0 0.0 0.00 0.00 0.00 89 1011.2
20260906064203 76 355 0.0 1.0 0.00 0.00 0.00 89 1011.3
20260906063704 77 355 0.0 1.0 0.00 0.00 0.00 88 1011.4
20260906062704 77 355 0.0 1.0 0.00 0.00 0.00 88 1011.4
20260906062204 77 355 0.0 0.0 0.00 0.00 0.00 88 1011.4
20260906060705 77 355 1.0 2.0 0.00 0.00 0.00 87 1011.3
20260906060204 77 355 0.0 0.0 0.00 0.00 0.00 87 1011.5
20260906055704 77 355 0.0 0.0 0.00 0.00 0.00 87 1011.4
20260906054204 77 355 0.0 0.0 0.00 0.00 0.00 87 1011.4
20260906053704 77 355 0.0 0.0 0.00 0.00 0.00 87 1011.5
20260906053205 77 355 0.0 0.0 0.00 0.00 0.00 87 1011.5
20260906052703 77 355 0.0 0.0 0.00 0.00 0.00 87 1011.5
20260906052204 77 355 0.0 0.0 0.00 0.00 0.00 87 1011.5
20260906051704 77 355 0.0 0.0 0.00 0.00 0.00 87 1011.5
20260906051204 77 355 0.0 0.0 0.00 0.00 0.00 87 1011.5
20260906050704 77 355 0.0 0.0 0.00 0.00 0.00 87 1011.4
20260906050204 77 355 0.0 0.0 0.00 0.00 0.00 87 1011.4
20260906045705 78 355 0.0 0.0 0.00 0.00 0.00 87 1011.4
20260906043704 78 355 0.0 0.0 0.00 0.00 0.00 86 1011.3
20260906043204 78 355 0.0 0.0 0.00 0.00 0.00 85 1011.3
20260906042204 78 355 0.0 0.0 0.00 0.00 0.00 85 1011.3
20260906041704 78 355 0.0 0.0 0.00 0.00 0.00 85 1011.2
20260906041204 78 355 0.0 0.0 0.00 0.00 0.00 85 1011.2
20260906040204 79 355 0.0 0.0 0.00 0.00 0.00 84 1011.1
20260906035704 79 355 0.0 0.0 0.00 0.00 0.00 84 1011.0
20260906035204 79 355 0.0 0.0 0.00 0.00 0.00 84 1011.0
20260906034204 79 355 0.0 0.0 0.00 0.00 0.00 83 1010.8
20260906033704 79 355 0.0 0.0 0.00 0.00 0.00 83 1010.9
20260906033204 79 355 0.0 0.0 0.00 0.00 0.00 83 1010.8
20260906032204 79 0 0.0 0.0 0.00 0.00 0.00 82 1010.8
20260906031705 80 0 0.0 0.0 0.00 0.00 0.00 82 1010.8
20260906031204 80 0 0.0 0.0 0.00 0.00 0.00 82 1010.8
20260906030204 80 0 0.0 1.0 0.00 0.00 0.00 81 1010.8
20260906025705 80 0 0.0 0.0 0.00 0.00 0.00 81 1010.8
20260906025204 80 0 0.0 1.0 0.00 0.00 0.00 81 1010.8
20260906024704 80 0 0.0 1.0 0.00 0.00 0.00 81 1010.8
20260906024204 81 0 0.0 0.0 0.00 0.00 0.00 80 1010.8
20260906023204 81 0 0.0 1.0 0.00 0.00 0.00 78 1010.8
20260906022704 81 0 0.0 0.0 0.00 0.00 0.00 78 1010.7
20260906022204 81 0 0.0 0.0 0.00 0.00 0.00 77 1010.6
20260906021704 82 0 0.0 0.0 0.00 0.00 0.00 77 1010.6
20260906021203 82 0 0.0 0.0 0.00 0.00 0.00 76 1010.5
20260906020705 82 0 0.0 0.0 0.00 0.00 0.00 76 1010.4
20260906020204 82 0 0.0 0.0 0.00 0.00 0.00 75 1010.3
20260906015204 83 0 0.0 0.0 0.00 0.00 0.00 74 1010.3
20260906014704 83 0 0.0 1.0 0.00 0.00 0.00 73 1010.2
20260906014204 83 0 0.0 0.0 0.00 0.00 0.00 73 1010.2
20260906013704 83 0 0.0 0.0 0.00 0.00 0.00 73 1010.1
20260906013205 84 0 0.0 0.0 0.00 0.00 0.00 71 1010.1
20260906012704 84 0 0.0 1.0 0.00 0.00 0.00 72 1010.1
20260906011204 85 0 0.0 0.0 0.00 0.00 0.00 69 1009.8
20260906010704 85 0 0.0 0.0 0.00 0.00 0.00 68 1009.8
20260906010204 86 0 0.0 0.0 0.00 0.00 0.00 67 1009.6
20260906005704 86 0 0.0 0.0 0.00 0.00 0.00 66 1009.5
20260906005204 86 0 0.0 0.0 0.00 0.00 0.00 65 1009.5
20260906004704 87 0 0.0 1.0 0.00 0.00 0.00 66 1009.5
20260906004205 87 0 0.0 1.0 0.00 0.00 0.00 65 1009.5
20260906003704 87 0 0.0 2.0 0.00 0.00 0.00 64 1009.4
20260906003204 88 283 0.0 1.0 0.00 0.00 0.00 63 1009.4
20260906002704 88 283 0.0 3.0 0.00 0.00 0.00 63 1009.4
20260906001704 89 303 1.0 2.0 0.00 0.00 0.00 62 1009.7
20260906001204 89 285 0.0 1.0 0.00 0.00 0.00 62 1009.7
20260906000704 89 285 0.0 0.0 0.00 0.00 0.00 60 1009.8
20260906000205 90 285 0.0 0.0 0.00 0.00 0.00 61 1009.9
20260905235705 90 285 0.0 0.0 0.00 0.00 0.00 59 1009.9
20260905235204 90 285 0.0 0.0 0.00 0.00 0.00 60 1010.0
20260905234204 90 285 1.0 3.0 0.00 0.00 0.00 58 1010.0
20260905233704 90 285 2.0 3.0 0.00 0.00 0.00 57 1010.0
20260905233204 90 310 1.0 3.0 0.00 0.00 0.00 58 1009.9
20260905232705 90 294 2.0 6.0 0.00 0.00 0.00 58 1010.1
20260905232204 90 306 3.0 5.0 0.00 0.00 0.00 57 1010.1
20260905231704 90 281 2.0 3.0 0.00 0.00 0.00 58 1010.1
20260905231204 90 307 2.0 3.0 0.00 0.00 0.00 57 1010.2
20260905230704 90 300 3.0 5.0 0.00 0.00 0.00 57 1010.2
20260905230204 90 294 1.0 3.0 0.00 0.00 0.00 59 1010.3
20260905225704 89 304 2.0 3.0 0.00 0.00 0.00 59 1010.3
20260905225205 89 249 2.0 6.0 0.00 0.00 0.00 59 1010.1
20260905224704 88 287 2.0 5.0 0.00 0.00 0.00 60 1010.1
20260905224204 88 270 1.0 3.0 0.00 0.00 0.00 61 1010.2
20260905223704 88 315 4.0 7.0 0.00 0.00 0.00 61 1010.3
20260905223204 88 309 4.0 7.0 0.00 0.00 0.00 61 1010.2
20260905222704 88 293 2.0 8.0 0.00 0.00 0.00 61 1010.2
20260905222203 88 287 3.0 6.0 0.00 0.00 0.00 61 1010.3
20260905221704 88 287 2.0 6.0 0.00 0.00 0.00 61 1010.0
20260905220704 89 261 2.0 3.0 0.00 0.00 0.00 63 1010.3
20260905220204 89 294 0.0 3.0 0.00 0.00 0.00 61 1010.2
20260905215705 89 294 0.0 1.0 0.00 0.00 0.00 61 1010.4
20260905215204 89 293 0.0 1.0 0.00 0.00 0.00 60 1010.3
20260905214204 89 53 1.0 3.0 0.00 0.00 0.00 59 1010.1
20260905213704 90 65 2.0 5.0 0.00 0.00 0.00 58 1010.3
20260905213204 90 66 2.0 3.0 0.00 0.00 0.00 57 1010.6
20260905212704 90 317 2.0 7.0 0.00 0.00 0.00 55 1010.6
20260905212205 90 288 2.0 3.0 0.00 0.00 0.00 55 1010.7
20260905210704 92 299 5.0 9.0 0.00 0.00 0.00 53 1010.5
20260905205704 93 300 5.0 8.0 0.00 0.00 0.00 53 1010.3
20260905205204 94 303 5.0 8.0 0.00 0.00 0.00 52 1010.4
20260905204705 95 275 3.0 9.0 0.00 0.00 0.00 51 1010.3
20260905204204 96 292 5.0 8.0 0.00 0.00 0.00 52 1010.6
20260905203704 96 304 2.0 3.0 0.00 0.00 0.00 54 1010.5
20260905203204 97 235 1.0 2.0 0.00 0.00 0.00 54 1010.5
20260905202704 97 235 1.0 2.0 0.00 0.00 0.00 51 1010.4
20260905202204 97 230 1.0 3.0 0.00 0.00 0.00 49 1010.2
20260905201204 97 293 0.0 1.0 0.00 0.00 0.00 50 1010.5
20260905200704 97 293 1.0 2.0 0.00 0.00 0.00 51 1010.5
20260905200204 98 293 0.0 2.0 0.00 0.00 0.00 48 1010.4
20260905195204 98 294 1.0 3.0 0.00 0.00 0.00 49 1010.7
20260905194705 99 238 1.0 2.0 0.00 0.00 0.00 47 1010.8
20260905193704 99 236 1.0 2.0 0.00 0.00 0.00 44 1010.9
20260905193205 99 312 2.0 6.0 0.00 0.00 0.00 43 1011.0
20260905192704 100 269 2.0 3.0 0.00 0.00 0.00 44 1011.0
20260905192204 99 248 1.0 3.0 0.00 0.00 0.00 46 1011.0
20260905191704 99 299 1.0 2.0 0.00 0.00 0.00 44 1011.0
20260905190704 99 259 3.0 7.0 0.00 0.00 0.00 45 1011.2
20260905190204 99 283 3.0 5.0 0.00 0.00 0.00 45 1011.2
20260905185704 99 3 1.0 3.0 0.00 0.00 0.00 46 1011.2
20260905185204 100 333 1.0 5.0 0.00 0.00 0.00 45 1011.3
20260905184704 100 32 1.0 3.0 0.00 0.00 0.00 44 1011.4
20260905184205 100 57 1.0 6.0 0.00 0.00 0.00 43 1011.4
20260905183204 99 83 2.0 3.0 0.00 0.00 0.00 46 1011.5
20260905182704 99 283 2.0 3.0 0.00 0.00 0.00 48 1011.6
20260905182204 99 283 3.0 6.0 0.00 0.00 0.00 46 1011.7
20260905181704 99 242 2.0 3.0 0.00 0.00 0.00 46 1011.7
20260905181204 99 269 2.0 6.0 0.00 0.00 0.00 47 1011.7
20260905180703 99 306 3.0 9.0 0.00 0.00 0.00 45 1011.8
20260905180204 98 306 2.0 5.0 0.00 0.00 0.00 47 1011.8
20260905175705 98 272 2.0 8.0 0.00 0.00 0.00 48 1011.9
20260905175204 98 249 2.0 5.0 0.00 0.00 0.00 48 1011.9
20260905174704 98 309 2.0 3.0 0.00 0.00 0.00 48 1012.0
20260905174204 98 28 2.0 9.0 0.00 0.00 0.00 49 1012.0
20260905173704 98 315 3.0 7.0 0.00 0.00 0.00 48 1012.0
20260905172704 97 286 2.0 6.0 0.00 0.00 0.00 49 1012.1
20260905172204 97 294 2.0 3.0 0.00 0.00 0.00 51 1012.2
20260905171705 97 326 2.0 5.0 0.00 0.00 0.00 50 1012.2
20260905171204 97 298 4.0 9.0 0.00 0.00 0.00 50 1012.3
20260905170704 97 291 1.0 8.0 0.00 0.00 0.00 50 1012.3
20260905170204 96 272 3.0 7.0 0.00 0.00 0.00 50 1012.4
20260905165704 96 231 2.0 5.0 0.00 0.00 0.00 48 1012.5
20260905165204 96 325 2.0 7.0 0.00 0.00 0.00 50 1012.6
20260905164704 96 310 3.0 7.0 0.00 0.00 0.00 51 1012.6
20260905164204 96 298 3.0 8.0 0.00 0.00 0.00 53 1012.7
20260905163704 95 306 3.0 7.0 0.00 0.00 0.00 53 1012.8
20260905163204 95 281 3.0 8.0 0.00 0.00 0.00 54 1012.8
20260905162704 95 285 2.0 8.0 0.00 0.00 0.00 54 1012.8
20260905162204 95 278 3.0 9.0 0.00 0.00 0.00 54 1012.9
20260905161704 94 321 3.0 7.0 0.00 0.00 0.00 56 1012.9
20260905161204 94 273 4.0 9.0 0.00 0.00 0.00 56 1012.8
20260905160704 94 285 5.0 9.0 0.00 0.00 0.00 55 1012.8
20260905155704 94 261 1.0 7.0 0.00 0.00 0.00 60 1012.8
20260905155204 94 310 3.0 6.0 0.00 0.00 0.00 58 1012.9
20260905154704 93 275 3.0 7.0 0.00 0.00 0.00 60 1012.9
20260905154205 93 285 3.0 8.0 0.00 0.00 0.00 58 1012.9
20260905153204 92 309 5.0 8.0 0.00 0.00 0.00 58 1013.0
20260905152704 92 330 5.0 12.0 0.00 0.00 0.00 58 1013.0
20260905152204 92 292 3.0 7.0 0.00 0.00 0.00 62 1013.0
20260905151704 92 326 2.0 3.0 0.00 0.00 0.00 63 1012.9
20260905150705 91 333 3.0 5.0 0.00 0.00 0.00 63 1013.0
20260905150204 90 274 3.0 6.0 0.00 0.00 0.00 64 1013.0
20260905145705 90 304 3.0 6.0 0.00 0.00 0.00 63 1013.0
20260905145204 89 309 2.0 3.0 0.00 0.00 0.00 64 1012.9
20260905144705 89 303 1.0 3.0 0.00 0.00 0.00 66 1012.9
20260905144204 89 311 2.0 5.0 0.00 0.00 0.00 66 1012.9
20260905143204 87 268 2.0 3.0 0.00 0.00 0.00 70 1012.9
20260905142704 87 269 1.0 3.0 0.00 0.00 0.00 71 1013.0
20260905142203 87 263 1.0 3.0 0.00 0.00 0.00 71 1013.0
20260905141705 86 285 2.0 6.0 0.00 0.00 0.00 71 1013.1
20260905141204 86 301 2.0 5.0 0.00 0.00 0.00 71 1013.1
20260905140704 85 290 2.0 3.0 0.00 0.00 0.00 74 1013.1
20260905140204 85 280 1.0 3.0 0.00 0.00 0.00 76 1013.2
20260905135704 84 301 0.0 1.0 0.00 0.00 0.00 77 1013.2
20260905135204 83 301 1.0 2.0 0.00 0.00 0.00 78 1013.2
20260905134704 82 288 1.0 2.0 0.00 0.00 0.00 80 1013.2
20260905133204 80 10 0.0 0.0 0.00 0.00 0.00 85 1013.2
20260905132704 80 10 0.0 1.0 0.00 0.00 0.00 85 1013.2